Content
SEND FEEDBACK

Daily
Averages
Monthly
Summary
United States of America

RUSK, TEXAS


Home > North America > United States > Texas
Elevation: 502 feet     Latitude: 31 48N     Longitude: 095 09W

WEATHER
 
SELECT A DAY
Number of Records: 77,091;   Date Range: 7/9/03 - 7/21/14
 
SHARE

PRINT THIS DATA

[ ← Previous Day ]
WEATHER ALMANAC - JANUARY 31, 2013
[ Next Day → ]
[ °C ]   °F
Weather ElementAverageHighLow
Temperature47.7 °F61.2 °F (3:15 pm)33.6 °F (7:15 am)
Dewpoint23.2 °F26.4 °F (9:35 am)20.5 °F (2:15 pm)
Humidity41.9 %70 % (12:35 am)21 % (2:15 pm)
Barometer30.22 in30.28 in (11:35 pm)30.17 in (4:55 am)
Wind Speed7.3 mph13.8 mph (11:55 am)
Wind Gust20.7 mph (11:15 am)
Weather ElementAverage
Visibility10 mi
Wind DirectionSSW (200 °)

Weather ElementTotal
Precipitation---
Heating Degree Days17.6 (Base 65)
Averaged from 68 records on January 31, 2013
WEATHER CONDITIONS BREAKOUT
WIND DIRECTION BREAKOUT
WEATHER BY HOUR - JANUARY 31, 2013
[ °C ]   °F
Local TimeTemperatureDewpointHumidityBarometerVisibilityWind DirectionWind SpeedGust SpeedPrecipitationEventsConditions
12:35 AM34.5 °F25.7 °F70 %30.18 in10.0 miCalmClear
12:55 AM36.1 °F25.7 °F66 %30.19 in10.0 miSouth (190°)4.6 mphClear
1:15 AM35.6 °F25.5 °F67 %30.19 in10.0 miSouth (190°)4.6 mphClear
1:35 AM36.1 °F25.2 °F64 %30.19 in10.0 miSSW (210°)4.6 mphClear
1:55 AM37.0 °F24.3 °F60 %30.19 in10.0 miSSW (200°)4.6 mphClear
2:15 AM35.6 °F25.0 °F65 %30.19 in10.0 miSSW (210°)4.6 mphClear
2:35 AM36.5 °F24.4 °F62 %30.19 in10.0 miSSW (200°)5.8 mphClear
2:55 AM35.4 °F24.8 °F65 %30.19 in10.0 miSSW (210°)5.8 mphClear
3:15 AM35.6 °F24.6 °F64 %30.19 in10.0 miSSW (210°)5.8 mphClear
3:35 AM34.7 °F25.2 °F68 %30.19 in10.0 miSSW (200°)6.9 mphClear
3:55 AM34.9 °F24.8 °F67 %30.19 in10.0 miSSW (200°)5.8 mphClear
4:15 AM34.7 °F25.0 °F68 %30.18 in10.0 miSSW (200°)4.6 mphClear
4:35 AM34.5 °F25.0 °F68 %30.19 in10.0 miSSW (210°)5.8 mphClear
4:55 AM34.7 °F24.6 °F67 %30.17 in10.0 miSW (220°)5.8 mphClear
5:15 AM36.0 °F23.2 °F60 %30.17 in10.0 miSW (220°)5.8 mphClear
5:35 AM36.5 °F22.8 °F58 %30.17 in10.0 miSSW (210°)5.8 mphClear
5:55 AM36.9 °F22.1 °F55 %30.18 in10.0 miSSW (210°)5.8 mphClear
6:15 AM35.4 °F23.4 °F62 %30.19 in10.0 miSSW (200°)5.8 mphClear
6:55 AM34.0 °F24.3 °F68 %30.21 in10.0 miSSW (200°)6.9 mphClear
7:15 AM33.6 °F24.6 °F70 %30.21 in10.0 miSSW (200°)8.1 mphClear
7:35 AM34.7 °F23.9 °F65 %30.22 in10.0 miSSW (210°)8.1 mphClear
7:55 AM35.8 °F23.9 °F62 %30.23 in10.0 miSSW (210°)8.1 mphClear
8:15 AM37.6 °F23.7 °F57 %30.25 in10.0 miSSW (200°)6.9 mphClear
8:35 AM39.0 °F24.1 °F55 %30.25 in10.0 miSouth (190°)6.9 mphClear
9:15 AM41.5 °F25.2 °F52 %30.26 in10.0 miSouth (190°)9.2 mphClear
9:35 AM43.3 °F26.4 °F51 %30.27 in10.0 miSouth (190°)9.2 mphClear
9:55 AM45.9 °F26.4 °F47 %30.27 inSouth (190°)9.2 mph
10:15 AM48.4 °F25.3 °F41 %30.27 in10.0 miSSW (210°)9.2 mph16.1 mphClear
10:35 AM50.0 °F23.0 °F35 %30.27 in10.0 miSSW (210°)10.4 mph18.4 mphClear
10:55 AM52.3 °F23.9 °F33 %30.27 in10.0 miSW (220°)9.2 mph19.6 mphClear
11:15 AM53.8 °F21.4 °F28 %30.27 in10.0 miSW (220°)11.5 mph20.7 mphClear
11:35 AM55.2 °F22.6 °F28 %30.26 in10.0 miSW (220°)10.4 mphClear
11:55 AM56.5 °F21.9 °F26 %30.26 in10.0 miSW (230°)13.8 mph17.3 mphClear
12:15 PM56.7 °F20.8 °F25 %30.25 in10.0 miWSW (250°)11.5 mph17.3 mphClear
12:35 PM57.6 °F21.7 °F25 %30.25 in10.0 miSSW (210°)9.2 mph17.3 mphClear
12:55 PM57.4 °F22.8 °F26 %30.24 in10.0 miSW (220°)10.4 mphClear
1:15 PM58.5 °F23.9 °F26 %30.23 in10.0 miWSW (240°)10.4 mph17.3 mphClear
1:35 PM59.4 °F21.9 °F24 %30.22 in10.0 miSW (220°)10.4 mph17.3 mphClear
1:55 PM60.1 °F20.8 °F22 %30.22 in10.0 miWSW (240°)10.4 mph16.1 mphClear
2:15 PM60.6 °F20.5 °F21 %30.21 in10.0 miWSW (250°)12.7 mph18.4 mphClear
2:35 PM61.0 °F20.8 °F21 %30.20 in10.0 miSW (220°)9.2 mphClear
3:15 PM61.2 °F21.4 °F22 %30.19 in10.0 miSW (230°)8.1 mph17.3 mphClear
3:35 PM61.2 °F23.0 °F23 %30.19 in10.0 miSouth (190°)9.2 mphClear
3:55 PM61.0 °F22.1 °F22 %30.20 in10.0 miSSW (210°)10.4 mphClear
4:15 PM60.8 °F21.4 °F22 %30.19 in10.0 miSouth (190°)6.9 mphClear
4:35 PM60.3 °F22.1 °F23 %30.20 in10.0 miSSW (200°)9.2 mphClear
4:55 PM59.9 °F22.6 °F24 %30.20 in10.0 miSouth (190°)9.2 mphClear
5:15 PM59.4 °F21.4 °F23 %30.19 in10.0 miSSW (200°)8.1 mphClear
5:35 PM58.5 °F21.6 °F24 %30.19 in10.0 miSSW (210°)4.6 mphClear
5:55 PM56.8 °F22.5 °F26 %30.18 in10.0 miSouth (190°)5.8 mphClear
6:15 PM55.6 °F23.2 °F29 %30.20 in10.0 miSSW (200°)4.6 mphClear
6:35 PM54.5 °F23.5 °F30 %30.20 in10.0 miSouth (190°)5.8 mphClear
6:55 PM53.8 °F23.5 °F31 %30.21 in10.0 miSouth (190°)3.5 mphClear
7:15 PM53.2 °F23.2 °F31 %30.22 in10.0 miSouth (180°)4.6 mphClear
7:35 PM52.9 °F22.8 °F31 %30.23 in10.0 miSouth (190°)4.6 mphClear
7:55 PM53.1 °F21.9 °F30 %30.23 in10.0 miSouth (190°)5.8 mphClear
8:15 PM52.5 °F21.9 °F30 %30.23 in10.0 miSouth (190°)6.9 mphClear
8:35 PM52.0 °F21.7 °F31 %30.25 in10.0 miSouth (190°)6.9 mphClear
8:55 PM51.6 °F22.1 °F32 %30.26 in10.0 miSouth (190°)5.8 mphClear
9:15 PM51.4 °F21.9 °F32 %30.26 in10.0 miSouth (190°)5.8 mphClear
9:35 PM51.3 °F21.7 °F31 %30.25 in10.0 miSouth (180°)6.9 mphClear
9:55 PM50.4 °F22.3 °F33 %30.26 in10.0 miSouth (180°)6.9 mphClear
10:15 PM50.4 °F22.3 °F33 %30.26 in10.0 miSouth (180°)6.9 mphClear
10:35 PM50.5 °F22.5 °F33 %30.26 in10.0 miSouth (180°)6.9 mphClear
10:55 PM50.5 °F22.3 °F33 %30.27 in10.0 miSouth (180°)8.1 mphClear
11:15 PM50.0 °F22.6 °F34 %30.27 in10.0 miSouth (190°)6.9 mphClear
11:35 PM49.6 °F22.8 °F35 %30.28 in10.0 miSouth (190°)8.1 mphClear
11:55 PM49.3 °F23.0 °F36 %30.28 in10.0 miSouth (180°)8.1 mphClear
Hourly data recorded from KJSO, located miles away from Rusk, Texas







STORIES FROM OUR PARTNERS